Location: Rostock
(54.0884°N, 12.1234°E)
Time: 05:12:46
(UTC+01:00)

ISS - Pass Details

Date: 11 February 2018
Orbit: 402 x 407 km, 51.6° (Epoch: 24 February)

Event Time Altitude Azimuth Distance (km) Brightness Sun altitude
Rises 17:47:11 0° 277° (W) 2,322 1.5 -5.7°
Reaches altitude 10° 17:49:28 10° 264° (W) 1,460 0.7 -6.0°
Maximum altitude 17:52:14 26° 206° (SSW) 847 -1.7 -6.4°
Drops below altitude 10° 17:55:00 10° 148° (SSE) 1,456 -1.2 -6.8°
Sets 17:57:17 0° 135° (SE) 2,313 -0.3 -7.1°
